Погода в Комсомольском

Казахстан     50°25′58″N   60°30′10″E
темп.,
°C
ветер,
м/с
пор.,
м/с
влажн.,
%
обл.,
%
осадки,
мм/ч
давл.,
гПа
погр.,
м
17 мая, пн
пн1723:00+24сз23315 1.1 102017
02:00+21всв23405 0.1 102114
05:00+18ююз11527 0.1 102211
08:00+24з003570 0.0 1022146
11:00+29с122575 0.0 1021859
14:00+31всв2219100 0.0 10203389
17:00+30св432497 0.1 10191387
20:00+24ссз3337100 0.7 101959
18 мая, вт
вт1823:00+20зсз3761100 2.1 1020164
02:00+20с3357100 0.9 101846
05:00+19с236169 0.9 101817
08:00+23с334483 0.0 1017215
11:00+28ссв2229100 0.0 10161219
14:00+29всв122640 0.0 10152963
17:00+30ссв122319 0.0 10133072
20:00+25св573825 0.0 1013169
19 мая, ср
ср1923:00+22св81445100 0.0 1014431
02:00+19ссв5105776 0.0 1014207
05:00+17ссв712615 0.0 1014337
08:00+18св1013683 0.0 1016730
11:00+21св1011510 0.0 10171212
14:00+23св910400 0.0 10181694
17:00+23всв910350 0.0 10181749
20:00+19всв812440 0.0 1018931
20 мая, чт
чт2023:00+16в613500 0.0 1021554
02:00+14всв612580 0.0 1021373
05:00+12всв511660 0.0 1022310
08:00+15в710550 0.0 1023736
11:00+19в89360 0.0 10231275
14:00+22в78292 0.0 10221619
17:00+23вюв77275 0.0 10211677
20:00+19вюв46390 0.0 1021111
21 мая, пт
пт2123:00+16в45440 0.0 102168
02:00+14в334957 0.0 102137
05:00+13всв33515 0.0 102117
08:00+18всв344121 0.0 1021282
11:00+22в442819 0.0 10201376
14:00+24вюв33235 0.0 10202020
17:00+25вюв222281 0.0 10192247
20:00+22вюв223271 0.0 101914